Location: *
(52.2090°N, 4.1550°W)
Time: 18:51:42
(UTC+00:00)

COSMOS 2428 - Pass Details

Date: 19 July 2019
Orbit: 846 x 855 km, 70.9° (Epoch: 24 August)

Event Time Altitude Azimuth Distance (km) Brightness Sun altitude
Exits shadow 22:17:53 10° 186° (S) 2,504 4.7 -12.1°
Reaches altitude 10° 22:17:57 10° 185° (S) 2,482 4.7 -12.1°
Maximum altitude 22:23:26 50° 112° (ESE) 1,079 3.0 -12.5°
Drops below altitude 10° 22:28:57 10° 38° (NE) 2,497 5.5 -12.9°
Sets 22:31:28 0° 34° (NE) 3,436 6.3 -13.1°
